When you browse on this site, cookies collect data to enhance your experience and personalize the content and advertising you see.
Visit our Privacy Policy to learn more. By continuing to use the site, you agree to this use of cookies and data.

Meteo pe oră la Dzierzaczka

Astăzi, 18 Septembrie, Vineri

Timp Temperatura Precipitaţii Vânt Presiune Umiditate
00:00 +9°C° 0 mm 2 m/s 766 mmHg 72%
01:00 +8°C° 0 mm 2 m/s 766 mmHg 72%
02:00 +8°C° 0 mm 2 m/s 766 mmHg 73%
03:00 +8°C° 0 mm 2 m/s 766 mmHg 75%
04:00 +7°C° 0 mm 2 m/s 766 mmHg 77%
05:00 +8°C° 0 mm 3 m/s 766 mmHg 74%
06:00 +9°C° 0 mm 3 m/s 766 mmHg 72%
07:00 +9°C° 0 mm 3 m/s 767 mmHg 69%
08:00 +11°C° 0 mm 3 m/s 767 mmHg 61%
09:00 +13°C° 0 mm 3 m/s 767 mmHg 54%
10:00 +16°C° 0 mm 3 m/s 767 mmHg 46%
11:00 +17°C° 0 mm 3 m/s 767 mmHg 42%
12:00 +18°C° 0 mm 3 m/s 767 mmHg 38%
13:00 +19°C° 0 mm 3 m/s 766 mmHg 34%
14:00 +19°C° 0 mm 3 m/s 766 mmHg 35%
15:00 +19°C° 0 mm 2 m/s 766 mmHg 35%
16:00 +19°C° 0 mm 2 m/s 765 mmHg 36%
17:00 +17°C° 0 mm 2 m/s 765 mmHg 40%
18:00 +16°C° 0 mm 1 m/s 765 mmHg 44%
19:00 +14°C° 0 mm 1 m/s 766 mmHg 49%
20:00 +13°C° 0 mm 1 m/s 766 mmHg 51%
21:00 +13°C° 0 mm 1 m/s 766 mmHg 52%
22:00 +12°C° 0 mm 1 m/s 766 mmHg 54%
23:00 +12°C° 0 mm 1 m/s 766 mmHg 57%

Mâine, 19 Septembrie, Sâmbătă

Timp Temperatura Precipitaţii Vânt Presiune Umiditate
00:00 +11°C° 0 mm 1 m/s 766 mmHg 59%
01:00 +11°C° 0 mm 1 m/s 766 mmHg 62%
02:00 +10°C° 0 mm 1 m/s 765 mmHg 64%
03:00 +10°C° 0 mm 1 m/s 765 mmHg 66%
04:00 +8°C° 0 mm 0 m/s 764 mmHg 69%
05:00 +9°C° 0 mm 0 m/s 764 mmHg 67%
06:00 +10°C° 0 mm 0 m/s 765 mmHg 65%
07:00 +11°C° 0 mm 0 m/s 765 mmHg 64%
08:00 +12°C° 0 mm 0 m/s 765 mmHg 58%
09:00 +15°C° 0 mm 1 m/s 765 mmHg 52%
10:00 +18°C° 0 mm 1 m/s 765 mmHg 46%
11:00 +19°C° 0 mm 1 m/s 764 mmHg 42%
12:00 +20°C° 0 mm 1 m/s 764 mmHg 38%
13:00 +20°C° 0 mm 1 m/s 764 mmHg 34%
14:00 +20°C° 0 mm 1 m/s 763 mmHg 35%
15:00 +20°C° 0 mm 1 m/s 763 mmHg 36%
16:00 +18°C° 0 mm 0 m/s 763 mmHg 37%
17:00 +19°C° 0 mm 1 m/s 762 mmHg 39%
18:00 +16°C° 0 mm 1 m/s 762 mmHg 40%
19:00 +14°C° 0 mm 1 m/s 762 mmHg 42%
20:00 +14°C° 0 mm 1 m/s 762 mmHg 43%
21:00 +14°C° 0 mm 1 m/s 763 mmHg 44%
22:00 +13°C° 0 mm 1 m/s 763 mmHg 45%
23:00 +13°C° 0 mm 1 m/s 763 mmHg 48%

Poimâine, 20 Septembrie, Duminică

Timp Temperatura Precipitaţii Vânt Presiune Umiditate
00:00 +12°C° 0 mm 1 m/s 762 mmHg 50%
01:00 +12°C° 0 mm 1 m/s 762 mmHg 52%
02:00 +12°C° 0 mm 1 m/s 762 mmHg 54%
03:00 +10°C° 0 mm 2 m/s 762 mmHg 57%
04:00 +10°C° 0 mm 2 m/s 762 mmHg 59%
05:00 +12°C° 0 mm 2 m/s 762 mmHg 59%
06:00 +12°C° 0 mm 2 m/s 762 mmHg 59%
07:00 +12°C° 0 mm 2 m/s 762 mmHg 59%
08:00 +14°C° 0 mm 2 m/s 762 mmHg 54%
09:00 +16°C° 0 mm 2 m/s 762 mmHg 49%
10:00 +18°C° 0 mm 3 m/s 762 mmHg 44%
11:00 +19°C° 0 mm 3 m/s 761 mmHg 41%
12:00 +20°C° 0 mm 3 m/s 761 mmHg 38%
13:00 +20°C° 0 mm 3 m/s 761 mmHg 35%
14:00 +20°C° 0 mm 2 m/s 761 mmHg 37%
15:00 +20°C° 0 mm 2 m/s 760 mmHg 39%
16:00 +20°C° 0 mm 2 m/s 760 mmHg 41%
17:00 +18°C° 0 mm 2 m/s 760 mmHg 44%
18:00 +16°C° 0 mm 2 m/s 760 mmHg 48%
19:00 +15°C° 0 mm 1 m/s 760 mmHg 52%
20:00 +14°C° 0 mm 2 m/s 760 mmHg 53%
21:00 +13°C° 0 mm 2 m/s 760 mmHg 55%
22:00 +13°C° 0 mm 2 m/s 760 mmHg 56%
23:00 +12°C° 0 mm 2 m/s 760 mmHg 58%

21 Septembrie, Luni

Timp Temperatura Precipitaţii Vânt Presiune Umiditate
00:00 +12°C° 0 mm 2 m/s 760 mmHg 61%
01:00 +12°C° 0 mm 2 m/s 760 mmHg 63%
02:00 +10°C° 0 mm 2 m/s 760 mmHg 66%
03:00 +10°C° 0 mm 2 m/s 760 mmHg 70%
04:00 +10°C° 0 mm 2 m/s 760 mmHg 73%
05:00 +10°C° 0 mm 2 m/s 760 mmHg 72%
06:00 +12°C° 0 mm 2 m/s 760 mmHg 71%
07:00 +12°C° 0 mm 2 m/s 760 mmHg 71%
08:00 +14°C° 0 mm 2 m/s 760 mmHg 65%
09:00 +17°C° 0 mm 2 m/s 760 mmHg 59%
10:00 +19°C° 0 mm 2 m/s 760 mmHg 53%
11:00 +20°C° 0 mm 2 m/s 759 mmHg 50%
12:00 +21°C° 0 mm 2 m/s 759 mmHg 46%
13:00 +23°C° 0 mm 2 m/s 759 mmHg 43%
14:00 +23°C° 0 mm 2 m/s 758 mmHg 44%
15:00 +23°C° 0 mm 2 m/s 758 mmHg 44%
16:00 +23°C° 0 mm 2 m/s 757 mmHg 45%
17:00 +21°C° 0 mm 2 m/s 757 mmHg 51%
18:00 +20°C° 0 mm 1 m/s 757 mmHg 57%
19:00 +18°C° 0 mm 1 m/s 757 mmHg 63%
20:00 +16°C° 0 mm 2 m/s 757 mmHg 64%
21:00 +16°C° 0 mm 2 m/s 757 mmHg 66%
22:00 +16°C° 0 mm 2 m/s 757 mmHg 68%
23:00 +15°C° 0 mm 2 m/s 757 mmHg 68%

22 Septembrie, Marţi

Timp Temperatura Precipitaţii Vânt Presiune Umiditate
00:00 +15°C° 0 mm 2 m/s 757 mmHg 68%
01:00 +14°C° 0 mm 3 m/s 756 mmHg 68%
02:00 +14°C° 0 mm 3 m/s 756 mmHg 69%
03:00 +13°C° 0 mm 3 m/s 755 mmHg 70%
04:00 +13°C° 0 mm 3 m/s 755 mmHg 71%
05:00 +14°C° 0 mm 3 m/s 755 mmHg 70%
06:00 +14°C° 0 mm 3 m/s 755 mmHg 69%
07:00 +16°C° 0 mm 3 m/s 755 mmHg 69%
08:00 +18°C° 0 mm 3 m/s 755 mmHg 62%
09:00 +20°C° 0 mm 4 m/s 754 mmHg 55%
10:00 +22°C° 0 mm 4 m/s 754 mmHg 49%
11:00 +23°C° 0 mm 5 m/s 754 mmHg 46%
12:00 +25°C° 0 mm 5 m/s 753 mmHg 42%
13:00 +27°C° 0 mm 5 m/s 753 mmHg 39%
14:00 +26°C° 0 mm 5 m/s 752 mmHg 41%
15:00 +26°C° 0 mm 4 m/s 752 mmHg 43%
16:00 +26°C° 0 mm 4 m/s 751 mmHg 45%
17:00 +23°C° 0 mm 4 m/s 751 mmHg 51%
18:00 +21°C° 0 mm 3 m/s 751 mmHg 56%
19:00 +20°C° 0 mm 3 m/s 751 mmHg 61%
20:00 +19°C° 0 mm 3 m/s 751 mmHg 64%
21:00 +19°C° 0 mm 3 m/s 751 mmHg 67%
22:00 +18°C° 0 mm 3 m/s 751 mmHg 69%
23:00 +18°C° 0 mm 3 m/s 751 mmHg 71%

23 Septembrie, Miercuri

Timp Temperatura Precipitaţii Vânt Presiune Umiditate
00:00 +17°C° 0 mm 3 m/s 750 mmHg 74%
01:00 +17°C° 0 mm 3 m/s 750 mmHg 76%
02:00 +17°C° 0 mm 3 m/s 750 mmHg 77%
03:00 +17°C° 0 mm 3 m/s 750 mmHg 78%
04:00 +16°C° 0 mm 3 m/s 750 mmHg 78%
05:00 +17°C° 0 mm 3 m/s 750 mmHg 76%
06:00 +17°C° 0 mm 3 m/s 750 mmHg 74%
07:00 +18°C° 0 mm 4 m/s 750 mmHg 72%
08:00 +19°C° 0 mm 4 m/s 750 mmHg 67%
09:00 +21°C° 0 mm 4 m/s 749 mmHg 62%
10:00 +23°C° 0 mm 4 m/s 749 mmHg 57%
11:00 +25°C° 0 mm 4 m/s 749 mmHg 55%
12:00 +26°C° 0 mm 4 m/s 749 mmHg 53%
13:00 +26°C° 0 mm 4 m/s 749 mmHg 51%
14:00 +26°C° 0 mm 4 m/s 748 mmHg 53%
15:00 +26°C° 0 mm 4 m/s 748 mmHg 55%
16:00 +25°C° 0 mm 4 m/s 748 mmHg 57%
17:00 +23°C° 0.1 mm 4 m/s 748 mmHg 62%
18:00 +21°C° 0.1 mm 4 m/s 748 mmHg 66%
19:00 +20°C° 0.1 mm 4 m/s 748 mmHg 71%
20:00 +20°C° 0 mm 4 m/s 748 mmHg 72%
21:00 +19°C° 0 mm 4 m/s 748 mmHg 74%
22:00 +19°C° 0 mm 4 m/s 748 mmHg 75%
23:00 +19°C° 0 mm 4 m/s 748 mmHg 76%
Arată mai mult